TimeMDT,TemperatureF,Dew PointF,Humidity,Sea Level PressureIn,VisibilityMPH,Wind Direction,Wind SpeedMPH,Gust SpeedMPH,PrecipitationIn,Events,Conditions,WindDirDegrees,DateUTC
12:53 AM,28.9,17.1,61,30.27,10.0,NNE,8.1,-,N/A,,Clear,30,2012-10-06 06:53:00
1:53 AM,30.9,16.0,54,30.27,10.0,Calm,Calm,-,N/A,,Clear,0,2012-10-06 07:53:00
2:53 AM,27.0,17.1,66,30.29,10.0,NNE,6.9,-,N/A,,Clear,20,2012-10-06 08:53:00
3:53 AM,27.0,17.1,66,30.30,10.0,NNE,6.9,-,N/A,,Clear,30,2012-10-06 09:53:00
4:53 AM,27.0,17.1,66,30.30,10.0,ENE,5.8,-,N/A,,Clear,60,2012-10-06 10:53:00
5:53 AM,26.1,16.0,66,30.32,10.0,NE,6.9,-,N/A,,Clear,50,2012-10-06 11:53:00
6:53 AM,26.1,16.0,66,30.33,10.0,NE,10.4,-,N/A,,Clear,40,2012-10-06 12:53:00
7:53 AM,24.8,15.8,69,30.30,10.0,ENE,3.5,-,N/A,,Clear,70,2012-10-06 13:53:00
8:53 AM,30.0,17.1,59,30.36,10.0,North,4.6,-,N/A,,Clear,360,2012-10-06 14:53:00
9:53 AM,36.0,15.1,43,30.35,10.0,NNE,9.2,-,N/A,,Clear,20,2012-10-06 15:53:00
10:53 AM,42.1,14.0,32,30.35,10.0,NNE,9.2,-,N/A,,Clear,20,2012-10-06 16:53:00
11:53 AM,46.0,8.1,21,30.31,10.0,North,8.1,-,N/A,,Clear,360,2012-10-06 17:53:00
12:53 PM,48.9,7.0,18,30.30,10.0,NNE,4.6,-,N/A,,Clear,20,2012-10-06 18:53:00
1:53 PM,51.1,3.0,14,30.25,10.0,Variable,4.6,-,N/A,,Clear,0,2012-10-06 19:53:00
2:53 PM,54.0,-2.0,10,30.22,10.0,North,9.2,-,N/A,,Clear,350,2012-10-06 20:53:00
3:53 PM,55.0,-8.0,7,30.21,10.0,Variable,5.8,-,N/A,,Clear,0,2012-10-06 21:53:00
5:53 PM,54.0,-11.9,6,30.20,10.0,ENE,4.6,-,N/A,,Clear,60,2012-10-06 23:53:00
6:53 PM,51.1,-8.0,9,30.21,10.0,Calm,Calm,-,N/A,,Clear,0,2012-10-07 00:53:00
7:53 PM,36.0,-2.0,20,30.27,10.0,South,6.9,-,N/A,,Clear,190,2012-10-07 01:53:00
8:53 PM,37.0,-2.0,19,30.25,10.0,SSW,6.9,-,N/A,,Clear,200,2012-10-07 02:53:00
9:53 PM,34.0,5.0,30,30.25,10.0,East,3.5,-,N/A,,Clear,80,2012-10-07 03:53:00
10:53 PM,28.9,5.0,36,30.25,10.0,East,3.5,-,N/A,,Clear,90,2012-10-07 04:53:00
11:53 PM,25.0,1.9,37,30.26,10.0,Calm,Calm,-,N/A,,Clear,0,2012-10-07 05:53:00